Frankfort, MI

3:03 PM EDT on June 25, 2017 (GMT -0400)
Frankfort

Weather History for KFKS - May, 2014

Change the Weather History Date:

Tuesday, May 13, 2014

  Actual Average (KMBL) Record (KMBL)
Temperature  
Mean Temperature 58 °F -  
Max Temperature 70 °F 62 °F 86 °F (1982)
Min Temperature 46 °F 41 °F 23 °F (2013)
Degree Days  
Heating Degree Days 7    
Growing Degree Days 8 (Base 50)    
Moisture  
Dew Point 51 °F    
Average Humidity 85    
Maximum Humidity 97    
Minimum Humidity 69    
Precipitation  
Precipitation 0.00 in - - ()
Sea Level Pressure  
Sea Level Pressure 29.89 in    
Wind  
Wind Speed 6 mph (SSW)    
Max Wind Speed 18 mph    
Max Gust Speed 32 mph    
Visibility 9 miles    
Events Fog , Rain    
Averages and records for this station are not official NWS values.
T = Trace of Precipitation, MM = Missing Value Source: NWS Daily Summary

Daily Weather History Graph

Daily Weather History Graph

Search for Another Location

Airport or City:

Trip Planner

Search our weather history database for the weather conditions in past years. The results will help you decide how hot, cold, wet, or windy it might be!

Date:

Astronomy

May. 13, 2014 Rise Set
Actual Time 6:19 AM EDT 9:03 PM EDT
Civil Twilight 5:45 AM EDT 9:37 PM EDT
Nautical Twilight 5:03 AM EDT 10:20 PM EDT
Astronomical Twilight 4:13 AM EDT 11:09 PM EDT
Moon 8:01 PM EDT (5/13) 5:39 AM EDT (5/13)
Length of Visible Light 15h 52m
Length of Day
14h 44m
Waxing Gibbous, 98% of the Moon is Illuminated
May 13
Waxing Gibbous
May 14
Full
May 21
Last Quarter
May 28
New
Jun 5
First Quarter

Hourly Weather History & Observations

Time (EDT) Temp. Dew Point Humidity Pressure Visibility Wind Dir Wind Speed Gust Speed Precip Events Conditions
12:13 AM 65.7 °F 61.2 °F 85% 29.84 in 10.0 mi Calm Calm - N/A   Mostly Cloudy
12:54 AM 69.6 °F 62.8 °F 79% 29.85 in 10.0 mi South 9.2 mph - N/A   Scattered Clouds
1:14 AM 70.0 °F 63.3 °F 79% 29.85 in 10.0 mi South 9.2 mph - N/A   Clear
1:34 AM 66.4 °F 60.3 °F 81% 29.85 in 10.0 mi SSW 11.5 mph 23.0 mph N/A   Clear
2:14 AM 63.1 °F 52.9 °F 69% 29.82 in 10.0 mi SW 8.1 mph - N/A   Clear
2:34 AM 61.3 °F 53.4 °F 75% 29.81 in 10.0 mi SSW 9.2 mph - N/A   Clear
2:54 AM 60.1 °F 53.1 °F 78% 29.78 in 10.0 mi South 6.9 mph - N/A   Clear
3:14 AM 58.5 °F 52.9 °F 82% 29.78 in 10.0 mi South 8.1 mph - N/A   Clear
3:34 AM 59.0 °F 54.0 °F 83% 29.76 in 10.0 mi SSE 4.6 mph - N/A   Clear
3:55 AM 59.5 °F 54.5 °F 83% 29.72 in 10.0 mi SE 4.6 mph - N/A   Clear
4:15 AM 61.5 °F 55.6 °F 81% 29.70 in 10.0 mi ENE 3.5 mph - N/A   Clear
4:35 AM 62.1 °F 55.8 °F 80% 29.71 in 10.0 mi ESE 6.9 mph - N/A   Clear
4:55 AM 62.4 °F 56.5 °F 81% 29.69 in 10.0 mi ESE 5.8 mph - N/A   Clear
5:15 AM 64.0 °F 57.9 °F 80% 29.70 in 10.0 mi SE 12.7 mph - N/A   Clear
5:35 AM 60.1 °F 54.3 °F 81% 29.79 in 10.0 mi West 18.4 mph 32.2 mph N/A   Mostly Cloudy
5:55 AM 55.9 °F 52.7 °F 89% 29.81 in 10.0 mi WNW 9.2 mph - N/A   Overcast
6:15 AM 53.8 °F 50.9 °F 90% 29.82 in 10.0 mi Calm Calm - N/A   Overcast
6:35 AM 53.6 °F 50.9 °F 91% 29.82 in 10.0 mi SSE 3.5 mph - N/A   Overcast
6:56 AM 54.1 °F 51.4 °F 91% 29.85 in 10.0 mi WSW 3.5 mph - N/A   Overcast
7:16 AM 54.3 °F 52.5 °F 94% 29.86 in 1.0 mi SSW 6.9 mph - N/A Rain Light Rain
7:36 AM 53.4 °F 52.0 °F 95% 29.86 in 0.5 mi South 9.2 mph - N/A Fog Fog
7:56 AM 55.9 °F 55.0 °F 97% 29.85 in 1.0 mi South 5.8 mph - N/A   Overcast
8:16 AM 55.9 °F 54.9 °F 96% 29.85 in 7.0 mi SSE 5.8 mph - N/A   Overcast
9:11 AM 60.1 °F 57.7 °F 92% 29.84 in 10.0 mi SSE 4.6 mph - N/A   Overcast
9:32 AM 63.5 °F 59.4 °F 86% 29.83 in 10.0 mi SSW 6.9 mph - N/A   Mostly Cloudy
10:12 AM 64.4 °F 59.4 °F 84% 29.83 in 10.0 mi SSW 8.1 mph 18.4 mph N/A   Overcast
10:52 AM 63.7 °F 59.4 °F 86% 29.83 in 10.0 mi SSW 12.7 mph 18.4 mph N/A   Overcast
12:32 PM 49.8 °F 48.4 °F 95% 29.88 in 3.0 mi Calm Calm - N/A   Drizzle
12:53 PM 50.2 °F 49.1 °F 96% 29.89 in 2.5 mi Calm Calm - N/A Rain Rain
1:33 PM 50.4 °F 49.3 °F 96% 29.90 in 5.0 mi WSW 6.9 mph - N/A Rain Light Rain
1:53 PM 50.9 °F 49.5 °F 95% 29.91 in 10.0 mi SW 8.1 mph - N/A   Overcast
2:13 PM 51.1 °F 49.5 °F 94% 29.92 in 10.0 mi West 6.9 mph - N/A   Overcast
2:33 PM 50.9 °F 48.2 °F 90% 29.93 in 10.0 mi WSW 5.8 mph - N/A   Overcast
2:53 PM 51.3 °F 48.2 °F 89% 29.93 in 10.0 mi SW 5.8 mph - N/A   Overcast
3:13 PM 51.1 °F 47.1 °F 86% 29.93 in 10.0 mi West 6.9 mph - N/A   Overcast
3:33 PM 50.9 °F 46.8 °F 86% 29.92 in 10.0 mi West 5.8 mph - N/A   Overcast
3:54 PM 51.1 °F 46.8 °F 85% 29.93 in 10.0 mi SW 4.6 mph - N/A   Overcast
4:14 PM 51.8 °F 46.9 °F 83% 29.93 in 10.0 mi WSW 3.5 mph - N/A   Overcast
4:34 PM 52.0 °F 47.1 °F 83% 29.93 in 10.0 mi Calm Calm - N/A   Mostly Cloudy
4:54 PM 52.0 °F 46.9 °F 83% 29.93 in 10.0 mi Calm Calm - N/A   Mostly Cloudy
5:14 PM 52.0 °F 47.3 °F 84% 29.94 in 10.0 mi SSW 4.6 mph - N/A   Overcast
5:34 PM 52.7 °F 47.5 °F 82% 29.95 in 10.0 mi SW 3.5 mph - N/A   Mostly Cloudy
5:54 PM 53.1 °F 47.8 °F 82% 29.96 in 10.0 mi SSW 5.8 mph - N/A   Mostly Cloudy
6:14 PM 51.8 °F 47.5 °F 85% 29.96 in 10.0 mi South 3.5 mph - N/A   Mostly Cloudy
6:34 PM 52.0 °F 47.3 °F 84% 29.96 in 10.0 mi SW 4.6 mph - N/A   Mostly Cloudy
6:55 PM 52.0 °F 47.5 °F 85% 29.96 in 10.0 mi South 4.6 mph - N/A   Overcast
7:15 PM 51.8 °F 47.8 °F 86% 29.97 in 10.0 mi SSW 4.6 mph - N/A   Overcast
7:35 PM 50.2 °F 46.9 °F 89% 29.98 in 10.0 mi SSW 5.8 mph - N/A   Overcast
8:15 PM 47.5 °F 44.1 °F 88% 29.99 in 10.0 mi Calm Calm - N/A   Overcast
8:35 PM 46.9 °F 43.2 °F 87% 30.00 in 10.0 mi Calm Calm - N/A   Overcast
9:15 PM 48.0 °F 42.8 °F 82% 30.01 in 10.0 mi Calm Calm - N/A   Mostly Cloudy
9:35 PM 47.8 °F 42.3 °F 81% 30.01 in 10.0 mi Calm Calm - N/A   Mostly Cloudy
9:56 PM 48.0 °F 42.1 °F 80% 30.02 in 10.0 mi Calm Calm - N/A   Overcast
10:16 PM 48.2 °F 41.9 °F 79% 30.02 in 10.0 mi Calm Calm - N/A   Mostly Cloudy
10:56 PM 49.3 °F 42.4 °F 77% 30.05 in 10.0 mi Calm Calm - N/A   Overcast
11:16 PM 49.3 °F 42.1 °F 76% 30.05 in 10.0 mi WNW 4.6 mph - N/A   Overcast
11:36 PM 48.7 °F 41.5 °F 76% 30.06 in 10.0 mi WSW 4.6 mph - N/A   Overcast
11:56 PM 47.5 °F 40.3 °F 76% 30.07 in 10.0 mi West 5.8 mph - N/A   Overcast